Torna al catalogo

STARLINK-5210

AttivoComunicazioniVLEO
NORAD 54082·PAYLOAD·🇺🇸 United States

Lanciato Oct 20, 2022 da Cape Canaveral Space Force Station

Loading…

Prossimi Passaggi (prossime 24 ore)

TLE

AggiornatoSource: CelesTrak SupGP

Epoca: Sep 14, 2026, 22:09 UTC

1 54082C 22136AH  26257.92340278  .00490110  00000+0  26250-1 0  2577
2 54082  53.1609 204.0873 0001431  91.7540 156.6047 15.14266481    12

Traccia STARLINK-5210 in tempo reale con AllMySat

Download on the App Store